Location: Gudip?du
(17.0263°N, 80.8301°E)
Time: 05:52:03
(UTC+00:00)

FUSE - Pass Details

Date: 03 August 2024
Orbit: 739 x 754 km, 25.0° (Epoch: 10 September)

Event Time Altitude Azimuth Distance (km) Brightness Sun altitude
Exits shadow 22:57:07 21° 295° (WNW) 1,622 5.3 -18.7°
Maximum altitude 23:00:43 76° 18° (NNE) 759 4.0 -17.9°
Drops below altitude 10° 23:06:01 10° 104° (ESE) 2,237 7.2 -16.7°
Sets 23:08:29 0° 106° (ESE) 3,162 8.0 -16.2°
